Regional Weather Roundup
Issued by NWS

Home | Current Version | Previous Version | Graphics & Text | Print | Product List | Glossary On
Versions: 1 2 3 4 5 6 7 8 9 10 11 12 13 14 15 16 17 18 19 20 21 22 23 24 25 26 27 28 29 30 31 32 33 34 35 36 37 38 39 40 41 42 43 44 45 46 47 48 49 50
000
ASUS45 KPSR 222110
RWRAZ

ARIZONA REGIONAL HOURLY WEATHER ROUNDUP
NATIONAL WEATHER SERVICE PHOENIX AZ
200 PM MST MON DEC 22 2014

NOTE: FAIR INDICATES FEW OR NO CLOUDS BELOW 12,000 FEET WITH NO
SIGNIFICANT WEATHER AND/OR OBSTRUCTIONS TO VISIBILITY.

AZZ001>003-036-222200-
NORTHWEST ARIZONA

CITY           SKY/WX    TMP DP  RH WIND       PRES   REMARKS
BULLHEAD CITY  SUNNY     68  45  42 CALM      29.95F
KINGMAN        SUNNY     66  37  34 N9        30.00F
$$

AZZ004>008-015-016-018-222200-
NORTH CENTRAL ARIZONA

CITY           SKY/WX    TMP DP  RH WIND       PRES   REMARKS
GRAND CANYON   SUNNY     51  33  50 NW13G24   30.00F
PRESCOTT       SUNNY     62  31  31 N17       29.97F
FLAGSTAFF      SUNNY     52  29  41 VRB7G21   30.00F
PAYSON         SUNNY     57  37  47 W16G22    29.95F
PAGE           SUNNY     64  33  31 W13G26    29.85S
$$

AZZ009>014-017-222200-
NORTHEAST ARIZONA

CITY           SKY/WX    TMP DP  RH WIND       PRES   REMARKS
WINSLOW        SUNNY     64  30  27 NW20G29   29.89F
SAINT JOHNS    SUNNY     58  32  37 W20G29    29.89S
WINDOW ROCK    MOSUNNY   51  32  48 W22G30    29.88F
SHOW LOW       SUNNY     55  25  30 NW16G25   29.97R
$$

AZZ023-222200-
GREATER PHOENIX AREA

CITY           SKY/WX    TMP DP  RH WIND       PRES   REMARKS
PHOENIX        SUNNY     64  41  42 VRB3      29.91F
BUCKEYE          N/A     63  43  48 SW5       29.93F
GLENDALE       SUNNY     63  43  48 SE3       29.94F
LUKE AFB       SUNNY     62  43  50 SW5       29.92F
DEER VALLEY    SUNNY     61  41  47 SW6       29.92F
SCOTTSDALE     SUNNY     61  42  49 W3        29.94F
MESA-FALCON    SUNNY     61  39  44 S7        29.93F
MESA-GATEWAY   MOSUNNY   61  43  51 W5        29.96F
$$

AZZ027-028-222200-
SOUTHWEST MARICOPA COUNTY AND PINAL COUNTY

CITY           SKY/WX    TMP DP  RH WIND       PRES   REMARKS
CASA GRANDE    SUNNY     61  41  48 MISG      29.94F
GILA BEND      CLEAR     66  41  39 W5        29.95F
$$

AZZ503-504-507>509-222200-
SOUTHEAST ARIZONA

CITY           SKY/WX    TMP DP  RH WIND       PRES   REMARKS
TUCSON         SUNNY     63  38  39 VRB5      29.96F
DAVIS-MONTHAN  SUNNY     62  39  44 W7        29.94F
RYAN FIELD       N/A     64  43  45 W5        29.97F
NOGALES        SUNNY     65  35  33 NW10G22   29.96F
SIERRA VISTA   SUNNY     64  34  32 W22G28    29.96F
DOUGLAS        SUNNY     64  35  34 SW9       29.93F
SAFFORD        SUNNY     63  37  38 NW16G24   29.84F
$$

AZZ020-021-025-026-031-222200-
SOUTHWEST ARIZONA

CITY           SKY/WX    TMP DP  RH WIND       PRES   REMARKS
YUMA           SUNNY    N/A N/A N/A W5        29.94F
$$

CAZ031-033-041-043-047-048-061-222200-
SOUTHERN CALIFORNIA

CITY           SKY/WX    TMP DP  RH WIND       PRES   REMARKS
DOWNTOWN L.A.  SUNNY     74  49  41 VRB5      29.97F
L.A. AIRPORT   MOSUNNY   65  59  81 W9        29.99F
SAN DIEGO      SUNNY     74  51  44 W3        29.98F
BURBANK        SUNNY     76  46  34 S5        29.98F
ONTARIO        SUNNY     72  46  39 W6        29.98F
RIVERSIDE      SUNNY     72  47  40 CALM      29.98F
PALM SPRINGS   SUNNY     72  45  37 VRB5      29.96F
EL CENTRO NAS  SUNNY     73  47  39 CALM      29.93F
IMPERIAL       SUNNY     73  49  42 S7        29.93F
BLYTHE         SUNNY     67  46  47 SW7       29.94F
NEEDLES        SUNNY     70  41  34 CALM      29.94F
$$

NVZ020-UTZ003-222200-
SOUTHERN NEVADA-UTAH

CITY           SKY/WX    TMP DP  RH WIND       PRES   REMARKS
LAS VEGAS      SUNNY     72  36  26 W6        29.94F
SALT LAKE CITY PTSUNNY   43  36  76 N8        29.99S
$$

NMZ009-TXZ055-222200-
NEW MEXICO-WEST TEXAS

CITY           SKY/WX    TMP DP  RH WIND       PRES   REMARKS
ALBUQUERQUE    PTSUNNY   60  26  27 NW26G32   29.70F
EL PASO        MOSUNNY   65  33  30 W25G35    29.75F
$$


........................KEY........................
SKY/WX - SKY CONDITION/WEATHER
TMP    - TEMPERATURE IN FAHRENHEIT
DP     - DEW POINT IN FAHRENHEIT
RH     - RELATIVE HUMIDITY IN PERCENT
WIND   - DIRECTION AND SPEED IN MILES PER HOUR (MPH)
VRB    - VARIABLE WIND DIRECTION
PRES   - MEAN SEA LEVEL PRESSURE IN INCHES OF MERCURY
         F - FALLING PRESSURE   R - RISING PRESSURE
         S - STEADY PRESSURE
VSB    - VISIBILITY IN MILES
HX     - HEAT INDEX IN FAHRENHEIT
WCI    - WIND CHILL INDEX IN FAHRENHEIT
TC     - TEMPERATURE IN CELSIUS WHICH IS ALSO KNOWN AS
         TEMPERATURE IN CENTIGRADE
AFB    - AIR FORCE BASE
         LUKE AFB IS LUKE AIR FORCE BASE
         DAVIS-MONTHAN IS DAVIS-MONTHAN AIR FORCE BASE
NAS    - NAVAL AIR STATION
         EL CENTRO NAS IS EL CENTRO NAVAL AIR STATION
N/A    - NOT AVAILABLE


USA.gov is the U.S. government's official web portal to all federal, state and local government web resources and services.